Location: Unspecified
(0.0000°N, 0.0000°E)
Time: 01:44:42
(UTC+00:00)

Envisat - Pass Details

Date: 25 May 2017
Orbit: 764 x 766 km, 98.2° (Epoch: 22 June)

Event Time Altitude Azimuth Distance (km) Brightness Sun altitude
Exits shadow 20:14:12 16° 10° (N) 1,930 5.2 -31.7°
Drops below altitude 10° 20:15:11 10° 6° (N) 2,293 5.6 -31.9°
Sets 20:17:33 0° 360° (N) 3,216 6.5 -32.5°
